Weather in Mozhga

Russia / Udmurt Republic     56°22′25″N   52°15′26″E
temp.,
°C
wind,
m/s
gust,
m/s
humid.,
%
clouds,
%
prec.,
mm/h
press.,
hPa
HPBL,
m
17 august, wed
wed1701:00+19ne2563100 0.0 1025121
04:00+16ne3576100 0.0 1025125
07:00+16ene487195 0.0 1026255
10:00+20ene45505 0.0 1025606
13:00+23ene34399 0.0 10251333
16:00+24ne44363 0.0 10241507
19:00+20ne33524 0.0 102332
22:00+17ne22551 0.0 102313
18 august, thu
thu1801:00+15ne22592 0.0 102313
04:00+14nne33705 0.0 102430
07:00+15ne467429 0.0 1025200
10:00+20ene55621 0.0 1025788
13:00+22ene56430 0.0 10251483
16:00+22ne66320 0.0 10251642
19:00+17ne47480 0.0 1026150
22:00+13ene47590 0.0 1027116
19 august, fri
fri1901:00+12e37610 0.0 1029113
04:00+10e35680 0.0 103167
07:00+12e37640 0.0 1033192
10:00+17e46485 0.0 1034755
13:00+20e4541100 0.0 10331290
16:00+21ene34386 0.0 10331375
19:00+18ne22525 0.0 103211
22:00+14n11570 0.0 103311
20 august, sat
sat2001:00+13nnw22615 0.0 103310
04:00+12n22715 0.0 103416
07:00+14n24695 0.0 1034100
10:00+20n34480 0.0 1033550
13:00+24n33400 0.0 10321069
16:00+25nnw33400 0.0 10311370
19:00+21nnw33580 0.0 103045
22:00+17n33685 0.0 103029
21 august, sun
sun2101:00+16n33770 0.0 103030
04:00+15n33815 0.0 103049
07:00+17n24753 0.0 1030120
10:00+23n34525 0.0 1029520
13:00+27n33405 0.0 10281719
16:00+27nne343750 0.0 10272234
19:00+23nne355599 0.0 102799
22:00+20ne236688 0.0 102740